Weather History for Litchfield, MN

Change the Weather History Date:

Thursday, September 12, 2013

  Actual Average Record
Temperature  
Mean Temperature 64 °F -  
Max Temperature 75 °F 74 °F 91 °F (1976)
Min Temperature 53 °F 51 °F 35 °F (1964)
Degree Days  
Heating Degree Days 1    
Growing Degree Days 14 (Base 50)    
Moisture  
Dew Point 48 °F    
Average Humidity 60    
Maximum Humidity 94    
Minimum Humidity 31    
Precipitation  
Precipitation 0.00 in - - ()
Sea Level Pressure  
Sea Level Pressure 30.21 in    
Wind  
Wind Speed 7 mph (NNW)    
Max Wind Speed 18 mph    
Max Gust Speed 24 mph    
Visibility 10 miles    
Events      
Averages and records for this station are not official NWS values.
T = Trace of Precipitation, MM = Missing Value Source: NWS Daily Summary

Daily Weather History Graph

Daily Weather History Graph

Search for Another Location

Airport:

Trip Planner

Search our weather history database for the weather conditions in past years. The results will help you decide how hot, cold, wet, or windy it might be!

Date:

Astronomy

Sep. 12, 2013 Rise Set
Actual Time 6:53 AM CDT 7:34 PM CDT
Civil Twilight 6:23 AM CDT 8:03 PM CDT
Nautical Twilight 5:48 AM CDT 8:38 PM CDT
Astronomical Twilight 5:11 AM CDT 9:15 PM CDT
Moon 2:39 PM CDT (9/12) No Moon Set
Length of Visible Light 13h 40m
Length of Day
12h 40m
Waxing Crescent, 50% of the Moon is Illuminated
Sep 12
Waxing Crescent
Sep 12
First Quarter
Sep 19
Full
Sep 26
Last Quarter
Oct 4
New

Hourly Weather History & Observations

Time (CDT) Temp. Dew Point Humidity Pressure Visibility Wind Dir Wind Speed Gust Speed Precip Events Conditions
12:13 AM 62.6 °F 48.2 °F 59% 30.12 in 10.0 mi NW 6.9 mph - N/A   Scattered Clouds
12:32 AM 62.6 °F 48.2 °F 59% 30.12 in 10.0 mi NW 8.1 mph - N/A   Scattered Clouds
12:53 AM 62.6 °F 48.2 °F 59% 30.13 in 10.0 mi NW 6.9 mph - N/A   Clear
1:13 AM 60.8 °F 48.2 °F 63% 30.14 in 10.0 mi NW 5.8 mph - N/A   Clear
1:32 AM 60.8 °F 48.2 °F 63% 30.15 in 10.0 mi NW 4.6 mph - N/A   Scattered Clouds
1:53 AM 60.8 °F 48.2 °F 63% 30.15 in 10.0 mi NW 5.8 mph - N/A   Clear
2:13 AM 60.8 °F 50.0 °F 68% 30.15 in 10.0 mi NW 4.6 mph - N/A   Scattered Clouds
2:32 AM 57.2 °F 50.0 °F 77% 30.15 in 10.0 mi NW 5.8 mph - N/A   Scattered Clouds
2:53 AM 57.2 °F 50.0 °F 77% 30.15 in 10.0 mi NW 4.6 mph - N/A   Scattered Clouds
3:13 AM 57.2 °F 50.0 °F 77% 30.15 in 10.0 mi NW 4.6 mph - N/A   Clear
3:32 AM 57.2 °F 50.0 °F 77% 30.16 in 10.0 mi NW 5.8 mph - N/A   Clear
3:53 AM 57.2 °F 51.8 °F 82% 30.17 in 10.0 mi NW 4.6 mph - N/A   Clear
4:13 AM 57.2 °F 51.8 °F 82% 30.16 in 10.0 mi NW 4.6 mph - N/A   Scattered Clouds
4:32 AM 55.4 °F 51.8 °F 88% 30.17 in 10.0 mi NW 5.8 mph - N/A   Scattered Clouds
4:53 AM 55.4 °F 51.8 °F 88% 30.17 in 10.0 mi NW 4.6 mph - N/A   Scattered Clouds
5:13 AM 55.4 °F 51.8 °F 88% 30.18 in 10.0 mi NW 4.6 mph - N/A   Clear
5:32 AM 55.4 °F 51.8 °F 88% 30.18 in 10.0 mi NW 3.5 mph - N/A   Clear
5:53 AM 53.6 °F 50.0 °F 88% 30.18 in 10.0 mi NW 5.8 mph - N/A   Clear
6:12 AM 55.4 °F 51.8 °F 88% 30.19 in 10.0 mi NW 3.5 mph - N/A   Scattered Clouds
6:33 AM 53.6 °F 50.0 °F 88% 30.19 in 10.0 mi NW 4.6 mph - N/A   Clear
6:52 AM 53.6 °F 51.8 °F 94% 30.20 in 10.0 mi WNW 3.5 mph - N/A   Clear
7:13 AM 53.6 °F 51.8 °F 94% 30.20 in 10.0 mi NW 3.5 mph - N/A   Clear
7:33 AM 55.4 °F 51.8 °F 88% 30.21 in 10.0 mi WNW 4.6 mph - N/A   Clear
7:52 AM 57.2 °F 53.6 °F 88% 30.22 in 10.0 mi NW 4.6 mph - N/A   Clear
8:13 AM 57.2 °F 53.6 °F 88% 30.22 in 10.0 mi NW 6.9 mph - N/A   Clear
8:33 AM 59.0 °F 53.6 °F 82% 30.23 in 10.0 mi NW 6.9 mph - N/A   Clear
8:52 AM 60.8 °F 53.6 °F 77% 30.22 in 10.0 mi NNW 8.1 mph - N/A   Clear
9:13 AM 62.6 °F 53.6 °F 72% 30.22 in 10.0 mi NNW 6.9 mph - N/A   Clear
9:33 AM 64.4 °F 55.4 °F 73% 30.23 in 10.0 mi NNW 6.9 mph - N/A   Clear
9:52 AM 66.2 °F 55.4 °F 68% 30.23 in 10.0 mi NNW 11.5 mph - N/A   Clear
10:13 AM 68.0 °F 55.4 °F 64% 30.24 in 10.0 mi NNW 10.4 mph - N/A   Clear
10:33 AM 69.8 °F 51.8 °F 53% 30.24 in 10.0 mi North 13.8 mph 17.3 mph N/A   Clear
10:52 AM 69.8 °F 51.8 °F 53% 30.24 in 10.0 mi North 11.5 mph 18.4 mph N/A   Clear
11:13 AM 71.6 °F 51.8 °F 50% 30.25 in 10.0 mi North 12.7 mph 18.4 mph N/A   Clear
11:33 AM 69.8 °F 48.2 °F 46% 30.25 in 10.0 mi NNW 15.0 mph - N/A   Clear
11:52 AM 71.6 °F 50.0 °F 46% 30.25 in 10.0 mi NNW 10.4 mph 16.1 mph N/A   Clear
12:13 PM 71.6 °F 46.4 °F 41% 30.25 in 10.0 mi North 13.8 mph 20.7 mph N/A   Clear
12:33 PM 73.4 °F 46.4 °F 38% 30.25 in 10.0 mi NNW 18.4 mph 23.0 mph N/A   Scattered Clouds
12:52 PM 73.4 °F 44.6 °F 36% 30.24 in 10.0 mi NNW 13.8 mph 19.6 mph N/A   Scattered Clouds
1:13 PM 71.6 °F 42.8 °F 35% 30.23 in 10.0 mi North 17.3 mph 23.0 mph N/A   Scattered Clouds
1:33 PM 73.4 °F 42.8 °F 33% 30.23 in 10.0 mi NNW 13.8 mph 24.2 mph N/A   Scattered Clouds
1:52 PM 73.4 °F 41.0 °F 31% 30.23 in 10.0 mi North 15.0 mph 24.2 mph N/A   Scattered Clouds
2:13 PM 73.4 °F 42.8 °F 33% 30.23 in 10.0 mi North 16.1 mph - N/A   Scattered Clouds
2:33 PM 73.4 °F 42.8 °F 33% 30.22 in 10.0 mi North 11.5 mph 21.9 mph N/A   Clear
2:52 PM 73.4 °F 42.8 °F 33% 30.22 in 10.0 mi North 10.4 mph 19.6 mph N/A   Scattered Clouds
3:13 PM 75.2 °F 42.8 °F 31% 30.22 in 10.0 mi NNW 15.0 mph 24.2 mph N/A   Scattered Clouds
3:33 PM 71.6 °F 44.6 °F 38% 30.22 in 10.0 mi NNW 9.2 mph 16.1 mph N/A   Scattered Clouds
3:52 PM 71.6 °F 44.6 °F 38% 30.22 in 10.0 mi NNW 11.5 mph - N/A   Scattered Clouds
4:13 PM 71.6 °F 44.6 °F 38% 30.21 in 10.0 mi North 11.5 mph 19.6 mph N/A   Mostly Cloudy
4:33 PM 71.6 °F 44.6 °F 38% 30.21 in 10.0 mi North 15.0 mph - N/A   Scattered Clouds
4:52 PM 73.4 °F 44.6 °F 36% 30.21 in 10.0 mi North 12.7 mph 17.3 mph N/A   Scattered Clouds
5:13 PM 71.6 °F 44.6 °F 38% 30.20 in 10.0 mi North 10.4 mph 18.4 mph N/A   Scattered Clouds
5:33 PM 73.4 °F 44.6 °F 36% 30.20 in 10.0 mi North 11.5 mph 18.4 mph N/A   Scattered Clouds
5:52 PM 71.6 °F 44.6 °F 38% 30.20 in 10.0 mi North 11.5 mph 17.3 mph N/A   Scattered Clouds
6:13 PM 71.6 °F 46.4 °F 41% 30.21 in 10.0 mi North 8.1 mph - N/A   Scattered Clouds
6:33 PM 69.8 °F 44.6 °F 40% 30.21 in 10.0 mi North 9.2 mph 16.1 mph N/A   Scattered Clouds
6:52 PM 69.8 °F 46.4 °F 43% 30.21 in 10.0 mi North 10.4 mph - N/A   Scattered Clouds
7:13 PM 68.0 °F 46.4 °F 46% 30.21 in 10.0 mi North 8.1 mph - N/A   Clear
7:33 PM 66.2 °F 46.4 °F 49% 30.22 in 10.0 mi North 5.8 mph - N/A   Scattered Clouds
7:52 PM 64.4 °F 46.4 °F 52% 30.22 in 10.0 mi North 5.8 mph - N/A   Clear
8:13 PM 62.6 °F 46.4 °F 55% 30.23 in 10.0 mi North 3.5 mph - N/A   Clear
8:33 PM 62.6 °F 46.4 °F 55% 30.24 in 10.0 mi Calm Calm - N/A   Clear
8:52 PM 60.8 °F 46.4 °F 59% 30.24 in 10.0 mi Calm Calm - N/A   Unknown
9:13 PM 60.8 °F 46.4 °F 59% 30.24 in 10.0 mi NNE 3.5 mph - N/A   Unknown
9:33 PM 60.8 °F 46.4 °F 59% 30.24 in 10.0 mi Calm Calm - N/A   Scattered Clouds
9:52 PM 60.8 °F 46.4 °F 59% 30.25 in 10.0 mi Calm Calm - N/A   Unknown
10:13 PM 59.0 °F 46.4 °F 63% 30.25 in 10.0 mi Calm Calm - N/A   Unknown
10:33 PM 57.2 °F 46.4 °F 67% 30.25 in 10.0 mi Calm Calm - N/A   Unknown
10:52 PM 57.2 °F 46.4 °F 67% 30.26 in 10.0 mi Calm Calm - N/A   Scattered Clouds
11:13 PM 55.4 °F 46.4 °F 72% 30.26 in 10.0 mi Calm Calm - N/A   Unknown
11:33 PM 55.4 °F 46.4 °F 72% 30.26 in 10.0 mi Calm Calm - N/A   Unknown
11:52 PM 55.4 °F 46.4 °F 72% 30.26 in 10.0 mi Calm Calm - N/A   Unknown